Regional Weather Roundup
Issued by NWS

Home | Current Version | Previous Version | Graphics & Text | Print | Product List | Glossary On
Versions: 1 2 3 4 5 6 7 8 9 10 11 12 13 14 15 16 17 18 19 20 21 22 23 24 25 26 27 28 29 30 31 32 33 34 35 36 37 38 39 40 41 42 43 44 45 46 47 48 49 50
000
ASUS43 KTOP 021459
RWRKS

WEATHER ROUNDUP FOR KANSAS
NATIONAL WEATHER SERVICE GOODLAND KS
1000 AM CDT TUE JUN 02 2015

NOTE:  "FAIR" INDICATES FEW OR NO CLOUDS BELOW 12,000 FEET WITH NO
SIGNIFICANT WEATHER AND/OR OBSTRUCTIONS TO VISIBILITY.

KSZ001>006-013>018-027>032-041>047-021600-
NORTHWEST KANSAS

CITY           SKY/WX    TMP DP  RH WIND       PRES   REMARKS
GOODLAND       MOSUNNY   69  62  78 S22       29.92F
HAYS           CLOUDY    64  57  77 S13       29.95S
HILL CITY      PTSUNNY   70  63  78 S13G20    29.91F
RUSSELL        CLOUDY    68  62  81 S10G20    29.94F
$$

KSZ061>065-074>080-084>089-021600-
SOUTHWEST KANSAS

CITY           SKY/WX    TMP DP  RH WIND       PRES   REMARKS
ELKHART          N/A     74  53  48 S16         N/A
GARDEN CITY    SUNNY     72  62  71 S13       29.94F
GREAT BEND     CLOUDY    70  63  78 S14       29.96S
LIBERAL        SUNNY     73  63  68 S15       29.95F
$$

KSZ066>073-081>083-090>101-021600-
SOUTHEAST KANSAS

CITY           SKY/WX    TMP DP  RH WIND       PRES   REMARKS
CHANUTE        MOSUNNY   66  60  81 E8        30.07S
COFFEYVILLE    CLOUDY    70  63  78 S7        30.04F
HUTCHINSON     PTSUNNY   75  62  64 S15       29.98F
MEDICINE LODGE   N/A     73  63  70 S14G22    29.97F
NEWTON         PTSUNNY   66  57  72 S14       30.03F
PARSONS        MOSUNNY   68  62  81 VRB5      30.07F
WICHITA INTL   PTSUNNY   74  61  63 SE15      30.00F
WICHITA JABRA  MOSUNNY   71  61  70 SE12      30.01F
WINFIELD       MOSUNNY   72  62  71 SE13      30.02F
$$

KSZ007>012-019>026-033>040-048>060-102>105-021600-
NORTHEAST KANSAS

CITY           SKY/WX    TMP DP  RH WIND       PRES   REMARKS
CONCORDIA      CLOUDY    65  57  75 SE21      29.98F
EMPORIA        PTSUNNY   65  59  81 SE9       30.05S
LAWRENCE       MOSUNNY   65  56  72 SE12      30.08F
MANHATTAN      CLOUDY    64  58  80 SE7       30.03F
OLATHE IND     PTSUNNY   64  56  75 SE13      30.09F
OLATHE EXE     CLOUDY    63  56  78 SE9       30.09F
SALINA         PTSUNNY   68  59  73 SE16      29.99S
TOPEKA BILLARD PTSUNNY   64  57  78 SE15      30.05F
TOPEKA FORBES  PTSUNNY   65  57  75 SE13      30.06F
$$



USA.gov is the U.S. government's official web portal to all federal, state and local government web resources and services.